Powrót do katalogu

STARLINK-37513

AktywnyŁącznośćVLEO
NORAD 69456·PAYLOAD·🇺🇸 United States

Wystrzelony Jun 8, 2026 z Cape Canaveral Space Force Station

Loading…

Następne Przeloty (najbliższe 24 godziny)

TLE

ŚwieżeSource: CelesTrak SupGP

Epoka: Sep 14, 2026, 15:43 UTC

1 69456C 26127P   26257.65534722  .00057208  00000+0  16907-2 0  2577
2 69456  53.1576 192.8641 0001195  99.9646  20.6183 15.34353882    12

Śledź STARLINK-37513 w czasie rzeczywistym z AllMySat

Download on the App Store